Time,TemperatureF,DewpointF,PressureIn,WindDirection,WindDirectionDegrees,WindSpeedMPH,WindSpeedGustMPH,Humidity,HourlyPrecipIn,Conditions,Clouds,dailyrainin,SoftwareType,DateUTC
2013-05-22 00:00:00,60.2,55.7,29.69,SW,224,0.0,0.0,85,0.00,,,0.01,Wunderground v.1.15,2013-05-22 05:00:00,
2013-05-22 00:05:00,60.1,55.6,29.69,SW,223,0.0,0.0,85,0.00,,,0.00,Wunderground v.1.15,2013-05-22 05:05:00,
2013-05-22 00:15:00,60.1,55.6,29.69,SW,223,0.0,0.0,85,0.00,,,0.00,Wunderground v.1.15,2013-05-22 05:15:00,
2013-05-22 00:24:00,60.1,55.2,29.69,WSW,258,1.0,2.0,84,0.00,,,0.00,Wunderground v.1.15,2013-05-22 05:24:00,
2013-05-22 00:35:00,60.1,55.2,29.70,WSW,251,1.0,2.0,84,0.00,,,0.00,Wunderground v.1.15,2013-05-22 05:35:00,
2013-05-22 00:40:00,59.9,55.1,29.70,WSW,250,0.0,2.0,84,0.00,,,0.00,Wunderground v.1.15,2013-05-22 05:40:00,
2013-05-22 00:50:00,59.9,54.7,29.69,West,261,1.0,1.0,83,0.00,,,0.00,Wunderground v.1.15,2013-05-22 05:50:00,
2013-05-22 01:00:00,59.8,54.6,29.68,West,260,0.0,0.0,83,0.00,,,0.00,Wunderground v.1.15,2013-05-22 06:00:00,
2013-05-22 01:05:00,59.8,54.6,29.68,West,260,0.0,0.0,83,0.00,,,0.00,Wunderground v.1.15,2013-05-22 06:05:00,
2013-05-22 01:15:00,59.6,54.8,29.68,West,260,0.0,0.0,84,0.00,,,0.00,Wunderground v.1.15,2013-05-22 06:15:00,
2013-05-22 01:24:00,59.5,54.7,29.68,West,260,0.0,0.0,84,0.00,,,0.00,Wunderground v.1.15,2013-05-22 06:24:00,
2013-05-22 01:29:00,59.3,54.5,29.68,West,260,0.0,0.0,84,0.00,,,0.00,Wunderground v.1.15,2013-05-22 06:29:00,
2013-05-22 01:35:00,59.2,54.7,29.69,West,260,0.0,0.0,85,0.00,,,0.00,Wunderground v.1.15,2013-05-22 06:35:00,
2013-05-22 01:45:00,59.0,54.5,29.69,West,260,0.0,0.0,85,0.00,,,0.00,Wunderground v.1.15,2013-05-22 06:45:00,
2013-05-22 01:54:00,58.9,54.4,29.69,WSW,251,0.0,0.0,85,0.00,,,0.00,Wunderground v.1.15,2013-05-22 06:54:00,
2013-05-22 02:00:00,58.9,54.4,29.68,WSW,252,0.0,0.0,85,0.00,,,0.00,Wunderground v.1.15,2013-05-22 07:00:00,
2013-05-22 02:05:00,58.9,54.7,29.68,WSW,251,0.0,0.0,86,0.00,,,0.00,Wunderground v.1.15,2013-05-22 07:05:00,
2013-05-22 02:10:00,58.9,54.7,29.68,WSW,252,0.0,0.0,86,0.00,,,0.00,Wunderground v.1.15,2013-05-22 07:10:00,
2013-05-22 02:20:00,58.6,54.4,29.68,WSW,252,0.0,0.0,86,0.00,,,0.00,Wunderground v.1.15,2013-05-22 07:20:00,
2013-05-22 02:30:00,58.3,54.1,29.67,WSW,252,0.0,0.0,86,0.00,,,0.00,Wunderground v.1.15,2013-05-22 07:30:00,
2013-05-22 02:40:00,57.8,54.0,29.67,WSW,252,0.0,0.0,87,0.00,,,0.00,Wunderground v.1.15,2013-05-22 07:40:00,
2013-05-22 02:50:00,57.3,53.5,29.68,WSW,252,0.0,0.0,87,0.00,,,0.00,Wunderground v.1.15,2013-05-22 07:50:00,
2013-05-22 03:00:00,57.0,53.5,29.68,WSW,252,0.0,0.0,88,0.00,,,0.00,Wunderground v.1.15,2013-05-22 08:00:00,
2013-05-22 03:05:00,56.7,53.2,29.68,WSW,252,0.0,0.0,88,0.00,,,0.00,Wunderground v.1.15,2013-05-22 08:05:00,
2013-05-22 03:10:00,56.6,53.1,29.68,WSW,252,0.0,0.0,88,0.00,,,0.00,Wunderground v.1.15,2013-05-22 08:10:00,
2013-05-22 03:20:00,56.5,53.6,29.68,WSW,252,0.0,0.0,90,0.00,,,0.00,Wunderground v.1.15,2013-05-22 08:20:00,
2013-05-22 03:30:00,56.2,53.0,29.68,WSW,252,0.0,0.0,89,0.00,,,0.00,Wunderground v.1.15,2013-05-22 08:30:00,
2013-05-22 03:40:00,56.0,53.1,29.68,WSW,252,0.0,0.0,90,0.00,,,0.00,Wunderground v.1.15,2013-05-22 08:40:00,
2013-05-22 03:50:00,56.0,53.1,29.68,WSW,252,0.0,0.0,90,0.00,,,0.00,Wunderground v.1.15,2013-05-22 08:50:00,
2013-05-22 04:00:00,55.3,52.4,29.69,WSW,251,0.0,0.0,90,0.00,,,0.00,Wunderground v.1.15,2013-05-22 09:00:00,
2013-05-22 04:05:00,55.1,52.2,29.69,WSW,252,0.0,0.0,90,0.00,,,0.00,Wunderground v.1.15,2013-05-22 09:05:00,
2013-05-22 04:15:00,54.8,51.9,29.70,WSW,252,0.0,0.0,90,0.00,,,0.00,Wunderground v.1.15,2013-05-22 09:15:00,
2013-05-22 04:25:00,54.5,51.9,29.70,WSW,252,0.0,0.0,91,0.00,,,0.00,Wunderground v.1.15,2013-05-22 09:25:00,
2013-05-22 04:35:00,54.8,52.5,29.70,WSW,252,0.0,0.0,92,0.00,,,0.00,Wunderground v.1.15,2013-05-22 09:35:00,
2013-05-22 04:45:00,54.7,52.1,29.70,WSW,252,0.0,0.0,91,0.00,,,0.00,Wunderground v.1.15,2013-05-22 09:45:00,
2013-05-22 04:55:00,54.5,52.2,29.70,WSW,252,0.0,0.0,92,0.00,,,0.00,Wunderground v.1.15,2013-05-22 09:55:00,
2013-05-22 05:05:00,54.1,51.8,29.70,WSW,252,0.0,0.0,92,0.00,,,0.00,Wunderground v.1.15,2013-05-22 10:05:00,
2013-05-22 05:15:00,54.1,51.8,29.70,WSW,251,0.0,0.0,92,0.00,,,0.00,Wunderground v.1.15,2013-05-22 10:15:00,
2013-05-22 05:25:00,53.8,51.5,29.70,WSW,252,0.0,0.0,92,0.00,,,0.00,Wunderground v.1.15,2013-05-22 10:25:00,
2013-05-22 05:34:00,53.6,51.3,29.70,WSW,252,0.0,0.0,92,0.00,,,0.00,Wunderground v.1.15,2013-05-22 10:34:00,
2013-05-22 05:40:00,53.3,51.0,29.70,WSW,252,0.0,0.0,92,0.00,,,0.00,Wunderground v.1.15,2013-05-22 10:40:00,
2013-05-22 05:50:00,53.9,51.9,29.71,WSW,251,0.0,0.0,93,0.00,,,0.00,Wunderground v.1.15,2013-05-22 10:50:00,
2013-05-22 06:00:00,53.9,51.9,29.71,WSW,252,0.0,0.0,93,0.00,,,0.00,Wunderground v.1.15,2013-05-22 11:00:00,
2013-05-22 06:05:00,53.9,51.9,29.72,WSW,251,0.0,0.0,93,0.00,,,0.00,Wunderground v.1.15,2013-05-22 11:05:00,
2013-05-22 06:10:00,53.9,51.9,29.72,WSW,252,0.0,0.0,93,0.00,,,0.00,Wunderground v.1.15,2013-05-22 11:10:00,
2013-05-22 06:20:00,54.1,52.1,29.72,WSW,252,0.0,0.0,93,0.00,,,0.00,Wunderground v.1.15,2013-05-22 11:20:00,
2013-05-22 06:30:00,53.6,51.6,29.72,WSW,252,0.0,0.0,93,0.00,,,0.00,Wunderground v.1.15,2013-05-22 11:30:00,
2013-05-22 06:40:00,54.1,52.1,29.72,WSW,252,0.0,0.0,93,0.00,,,0.00,Wunderground v.1.15,2013-05-22 11:40:00,
2013-05-22 06:50:00,54.7,52.7,29.72,WSW,252,0.0,1.0,93,0.00,,,0.00,Wunderground v.1.15,2013-05-22 11:50:00,
2013-05-22 07:00:00,54.8,52.8,29.72,WSW,252,0.0,0.0,93,0.00,,,0.00,Wunderground v.1.15,2013-05-22 12:00:00,
2013-05-22 07:05:00,55.1,53.1,29.72,WSW,252,0.0,0.0,93,0.00,,,0.00,Wunderground v.1.15,2013-05-22 12:05:00,
2013-05-22 07:10:00,55.3,53.3,29.72,WSW,252,1.0,1.0,93,0.00,,,0.00,Wunderground v.1.15,2013-05-22 12:10:00,
2013-05-22 07:19:00,55.6,53.6,29.72,WSW,252,0.0,0.0,93,0.00,,,0.00,Wunderground v.1.15,2013-05-22 12:19:00,
2013-05-22 07:25:00,55.7,53.7,29.72,WSW,252,0.0,0.0,93,0.00,,,0.00,Wunderground v.1.15,2013-05-22 12:25:00,
2013-05-22 07:35:00,56.0,54.0,29.72,WSW,251,1.0,3.0,93,0.00,,,0.00,Wunderground v.1.15,2013-05-22 12:35:00,
2013-05-22 07:45:00,56.6,54.6,29.72,SW,220,1.0,2.0,93,0.00,,,0.00,Wunderground v.1.15,2013-05-22 12:45:00,
2013-05-22 07:55:00,57.6,55.6,29.72,SW,223,2.0,7.0,93,0.00,,,0.00,Wunderground v.1.15,2013-05-22 12:55:00,
2013-05-22 08:05:00,58.6,56.0,29.72,South,175,3.0,3.0,91,0.00,,,0.00,Wunderground v.1.15,2013-05-22 13:05:00,
2013-05-22 08:10:00,58.7,55.8,29.72,SSW,192,2.0,3.0,90,0.00,,,0.00,Wunderground v.1.15,2013-05-22 13:10:00,
2013-05-22 08:20:00,59.5,56.3,29.72,WSW,243,2.0,2.0,89,0.00,,,0.00,Wunderground v.1.15,2013-05-22 13:20:00,
2013-05-22 08:30:00,60.9,56.7,29.72,WSW,248,2.0,2.0,86,0.00,,,0.00,Wunderground v.1.15,2013-05-22 13:30:00,
2013-05-22 08:40:00,62.1,56.2,29.72,South,173,3.0,4.0,81,0.00,,,0.00,Wunderground v.1.15,2013-05-22 13:40:00,
2013-05-22 08:49:00,63.4,56.4,29.72,WSW,246,4.0,4.0,78,0.00,,,0.00,Wunderground v.1.15,2013-05-22 13:49:00,
2013-05-22 08:54:00,64.2,56.8,29.72,SW,215,3.0,4.0,77,0.00,,,0.00,Wunderground v.1.15,2013-05-22 13:54:00,
2013-05-22 09:00:00,64.7,55.8,29.72,WSW,242,4.0,4.0,73,0.00,,,0.00,Wunderground v.1.15,2013-05-22 14:00:00,
2013-05-22 09:05:00,64.8,55.6,29.72,SW,234,5.0,5.0,72,0.00,,,0.00,Wunderground v.1.15,2013-05-22 14:05:00,
2013-05-22 09:10:00,65.2,55.9,29.72,SSW,193,4.0,4.0,72,0.00,,,0.00,Wunderground v.1.15,2013-05-22 14:10:00,
2013-05-22 09:19:00,65.6,55.9,29.73,South,187,6.0,6.0,71,0.00,,,0.00,Wunderground v.1.15,2013-05-22 14:19:00,
2013-05-22 09:25:00,66.0,55.5,29.73,SSE,156,5.0,6.0,69,0.00,,,0.00,Wunderground v.1.15,2013-05-22 14:25:00,
2013-05-22 09:35:00,66.9,56.4,29.73,South,178,3.0,5.0,69,0.00,,,0.00,Wunderground v.1.15,2013-05-22 14:35:00,
2013-05-22 09:45:00,67.8,56.0,29.73,WNW,285,4.0,10.0,66,0.00,,,0.00,Wunderground v.1.15,2013-05-22 14:45:00,
2013-05-22 09:55:00,67.4,55.6,29.73,SSW,193,6.0,11.0,66,0.00,,,0.00,Wunderground v.1.15,2013-05-22 14:55:00,
2013-05-22 10:05:00,67.9,56.1,29.73,South,177,5.0,7.0,66,0.00,,,0.00,Wunderground v.1.15,2013-05-22 15:05:00,
2013-05-22 10:14:00,68.8,56.6,29.73,SSW,195,4.0,6.0,65,0.00,,,0.00,Wunderground v.1.15,2013-05-22 15:14:00,
2013-05-22 10:20:00,68.8,56.6,29.73,SW,217,4.0,9.0,65,0.00,,,0.00,Wunderground v.1.15,2013-05-22 15:20:00,
2013-05-22 10:30:00,69.3,57.5,29.73,SSE,152,3.0,4.0,66,0.00,,,0.00,Wunderground v.1.15,2013-05-22 15:30:00,
2013-05-22 10:40:00,69.9,57.2,29.73,West,264,4.0,4.0,64,0.00,,,0.00,Wunderground v.1.15,2013-05-22 15:40:00,
2013-05-22 10:50:00,70.1,56.5,29.74,WSW,258,2.0,5.0,62,0.00,,,0.00,Wunderground v.1.15,2013-05-22 15:50:00,
2013-05-22 10:59:00,70.1,58.2,29.74,NW,310,5.0,5.0,66,0.00,,,0.00,Wunderground v.1.15,2013-05-22 15:59:00,
2013-05-22 11:05:00,69.9,56.7,29.74,West,268,4.0,7.0,63,0.00,,,0.00,Wunderground v.1.15,2013-05-22 16:05:00,
2013-05-22 11:15:00,70.3,55.3,29.74,NNW,342,4.0,4.0,59,0.00,,,0.00,Wunderground v.1.15,2013-05-22 16:15:00,
2013-05-22 11:25:00,70.8,55.3,29.74,WSW,244,4.0,4.0,58,0.00,,,0.00,Wunderground v.1.15,2013-05-22 16:25:00,
2013-05-22 11:34:00,71.1,57.0,29.74,West,267,4.0,4.0,61,0.00,,,0.00,Wunderground v.1.15,2013-05-22 16:34:00,
2013-05-22 11:40:00,71.1,56.0,29.74,NNW,345,4.0,5.0,59,0.00,,,0.00,Wunderground v.1.15,2013-05-22 16:40:00,
2013-05-22 11:50:00,71.1,56.0,29.75,SSE,162,3.0,3.0,59,0.00,,,0.00,Wunderground v.1.15,2013-05-22 16:50:00,
2013-05-22 12:00:00,70.9,54.9,29.75,South,170,3.0,7.0,57,0.00,,,0.00,Wunderground v.1.15,2013-05-22 17:00:00,
2013-05-22 12:05:00,70.8,55.3,29.75,West,266,4.0,7.0,58,0.00,,,0.00,Wunderground v.1.15,2013-05-22 17:05:00,
2013-05-22 12:15:00,71.3,55.3,29.75,WSW,246,4.0,11.0,57,0.00,,,0.00,Wunderground v.1.15,2013-05-22 17:15:00,
2013-05-22 12:25:00,72.0,57.4,29.75,SSW,202,2.0,5.0,60,0.00,,,0.00,Wunderground v.1.15,2013-05-22 17:25:00,
2013-05-22 12:34:00,72.3,57.6,29.75,SSW,213,3.0,6.0,60,0.00,,,0.00,Wunderground v.1.15,2013-05-22 17:34:00,
2013-05-22 12:40:00,73.0,58.3,29.75,NW,314,3.0,4.0,60,0.00,,,0.00,Wunderground v.1.15,2013-05-22 17:40:00,
2013-05-22 12:50:00,71.8,55.3,29.75,WSW,238,3.0,4.0,56,0.00,,,0.00,Wunderground v.1.15,2013-05-22 17:50:00,
2013-05-22 13:00:00,71.1,55.6,29.75,West,271,2.0,6.0,58,0.00,,,0.00,Wunderground v.1.15,2013-05-22 18:00:00,
2013-05-22 13:05:00,70.9,55.9,29.75,NW,304,3.0,6.0,59,0.00,,,0.00,Wunderground v.1.15,2013-05-22 18:05:00,
2013-05-22 13:10:00,71.1,55.6,29.75,WSW,243,2.0,5.0,58,0.00,,,0.00,Wunderground v.1.15,2013-05-22 18:10:00,
2013-05-22 13:20:00,71.3,55.3,29.75,South,178,4.0,4.0,57,0.00,,,0.00,Wunderground v.1.15,2013-05-22 18:20:00,
2013-05-22 13:30:00,71.3,56.2,29.76,SSE,161,2.0,2.0,59,0.00,,,0.00,Wunderground v.1.15,2013-05-22 18:30:00,
2013-05-22 13:40:00,71.1,55.6,29.76,SSE,165,3.0,3.0,58,0.00,,,0.00,Wunderground v.1.15,2013-05-22 18:40:00,
2013-05-22 13:50:00,71.8,57.6,29.75,SW,224,3.0,3.0,61,0.00,,,0.00,Wunderground v.1.15,2013-05-22 18:50:00,
2013-05-22 14:00:00,72.5,57.8,29.75,WNW,282,2.0,2.0,60,0.00,,,0.00,Wunderground v.1.15,2013-05-22 19:00:00,
2013-05-22 14:10:00,72.1,57.0,29.75,West,259,2.0,5.0,59,0.00,,,0.00,Wunderground v.1.15,2013-05-22 19:10:00,
2013-05-22 14:20:00,72.0,56.9,29.76,SSW,209,3.0,3.0,59,0.00,,,0.00,Wunderground v.1.15,2013-05-22 19:20:00,
2013-05-22 14:30:00,70.9,55.9,29.76,South,182,2.0,2.0,59,0.00,,,0.00,Wunderground v.1.15,2013-05-22 19:30:00,
2013-05-22 14:40:00,71.8,57.2,29.76,SW,221,2.0,2.0,60,0.00,,,0.00,Wunderground v.1.15,2013-05-22 19:40:00,
2013-05-22 14:50:00,73.0,55.9,29.76,SW,229,3.0,3.0,55,0.00,,,0.00,Wunderground v.1.15,2013-05-22 19:50:00,
2013-05-22 15:00:00,72.8,56.7,29.76,North,350,2.0,2.0,57,0.00,,,0.00,Wunderground v.1.15,2013-05-22 20:00:00,
2013-05-22 15:09:00,72.8,56.7,29.76,West,272,3.0,3.0,57,0.00,,,0.00,Wunderground v.1.15,2013-05-22 20:09:00,
2013-05-22 15:15:00,73.0,55.9,29.76,WSW,241,3.0,4.0,55,0.00,,,0.00,Wunderground v.1.15,2013-05-22 20:15:00,
2013-05-22 15:25:00,72.5,58.7,29.76,NW,309,2.0,4.0,62,0.00,,,0.00,Wunderground v.1.15,2013-05-22 20:25:00,
2013-05-22 15:35:00,72.5,58.3,29.76,SW,219,2.0,4.0,61,0.00,,,0.00,Wunderground v.1.15,2013-05-22 20:35:00,
2013-05-22 15:45:00,72.3,56.7,29.76,SSE,168,2.0,2.0,58,0.00,,,0.00,Wunderground v.1.15,2013-05-22 20:45:00,
2013-05-22 15:55:00,72.7,56.6,29.76,North,350,2.0,5.0,57,0.00,,,0.00,Wunderground v.1.15,2013-05-22 20:55:00,
2013-05-22 16:05:00,72.3,55.2,29.76,WNW,283,2.0,4.0,55,0.00,,,0.00,Wunderground v.1.15,2013-05-22 21:05:00,
2013-05-22 16:10:00,71.8,55.3,29.76,NNE,14,3.0,3.0,56,0.00,,,0.00,Wunderground v.1.15,2013-05-22 21:10:00,
2013-05-22 16:20:00,72.3,55.7,29.76,WNW,292,2.0,2.0,56,0.00,,,0.00,Wunderground v.1.15,2013-05-22 21:20:00,
2013-05-22 16:30:00,71.8,54.8,29.76,South,172,3.0,3.0,55,0.00,,,0.00,Wunderground v.1.15,2013-05-22 21:30:00,
2013-05-22 16:40:00,71.6,56.0,29.76,NW,308,1.0,2.0,58,0.00,,,0.00,Wunderground v.1.15,2013-05-22 21:40:00,
2013-05-22 16:50:00,71.5,55.0,29.76,WSW,250,2.0,4.0,56,0.00,,,0.00,Wunderground v.1.15,2013-05-22 21:50:00,
2013-05-22 16:59:00,71.8,55.3,29.76,North,349,3.0,3.0,56,0.00,,,0.00,Wunderground v.1.15,2013-05-22 21:59:00,
2013-05-22 17:05:00,71.8,55.7,29.76,WSW,248,2.0,3.0,57,0.00,,,0.00,Wunderground v.1.15,2013-05-22 22:05:00,
2013-05-22 17:15:00,72.3,55.2,29.76,WNW,301,2.0,2.0,55,0.00,,,0.00,Wunderground v.1.15,2013-05-22 22:15:00,
2013-05-22 17:25:00,71.5,56.4,29.76,NW,322,1.0,2.0,59,0.00,,,0.00,Wunderground v.1.15,2013-05-22 22:25:00,
2013-05-22 17:34:00,71.8,55.7,29.76,WSW,248,2.0,4.0,57,0.00,,,0.00,Wunderground v.1.15,2013-05-22 22:34:00,
2013-05-22 17:40:00,71.8,54.3,29.76,WNW,302,2.0,2.0,54,0.00,,,0.00,Wunderground v.1.15,2013-05-22 22:40:00,
2013-05-22 17:50:00,71.6,54.6,29.76,WNW,290,2.0,2.0,55,0.00,,,0.00,Wunderground v.1.15,2013-05-22 22:50:00,
2013-05-22 18:00:00,71.6,55.1,29.77,WSW,256,1.0,1.0,56,0.00,,,0.00,Wunderground v.1.15,2013-05-22 23:00:00,
2013-05-22 18:05:00,71.6,55.1,29.77,WNW,294,1.0,2.0,56,0.00,,,0.00,Wunderground v.1.15,2013-05-22 23:05:00,
2013-05-22 18:10:00,70.8,54.3,29.77,NNW,340,2.0,4.0,56,0.00,,,0.00,Wunderground v.1.15,2013-05-22 23:10:00,
2013-05-22 18:19:00,70.3,54.3,29.77,SW,232,1.0,1.0,57,0.00,,,0.00,Wunderground v.1.15,2013-05-22 23:19:00,
2013-05-22 18:25:00,70.1,54.2,29.77,NW,323,1.0,2.0,57,0.00,,,0.00,Wunderground v.1.15,2013-05-22 23:25:00,
2013-05-22 18:35:00,69.4,54.0,29.77,North,350,2.0,2.0,58,0.00,,,0.00,Wunderground v.1.15,2013-05-22 23:35:00,
2013-05-22 18:45:00,68.8,53.4,29.78,WNW,294,2.0,2.0,58,0.00,,,0.00,Wunderground v.1.15,2013-05-22 23:45:00,
2013-05-22 18:54:00,68.6,54.2,29.78,West,273,1.0,2.0,60,0.00,,,0.00,Wunderground v.1.15,2013-05-22 23:54:00,
2013-05-22 19:00:00,68.4,54.0,29.78,WNW,293,1.0,2.0,60,0.00,,,0.00,Wunderground v.1.15,2013-05-23 00:00:00,
2013-05-22 19:05:00,68.3,54.3,29.78,NNE,23,1.0,2.0,61,0.00,,,0.00,Wunderground v.1.15,2013-05-23 00:05:00,
2013-05-22 19:10:00,68.1,53.7,29.78,West,280,1.0,1.0,60,0.00,,,0.00,Wunderground v.1.15,2013-05-23 00:10:00,
2013-05-22 19:20:00,67.8,53.9,29.78,WNW,303,1.0,2.0,61,0.00,,,0.00,Wunderground v.1.15,2013-05-23 00:20:00,
2013-05-22 19:29:00,67.4,53.9,29.78,West,262,1.0,1.0,62,0.00,,,0.00,Wunderground v.1.15,2013-05-23 00:29:00,
2013-05-22 19:35:00,67.3,53.8,29.78,West,260,1.0,1.0,62,0.00,,,0.00,Wunderground v.1.15,2013-05-23 00:35:00,
2013-05-22 19:45:00,66.8,53.8,29.79,West,259,0.0,1.0,63,0.00,,,0.00,Wunderground v.1.15,2013-05-23 00:45:00,
2013-05-22 19:54:00,66.3,54.2,29.79,West,259,0.0,0.0,65,0.00,,,0.00,Wunderground v.1.15,2013-05-23 00:54:00,
2013-05-22 20:00:00,66.1,54.4,29.79,West,259,0.0,0.0,66,0.00,,,0.00,Wunderground v.1.15,2013-05-23 01:00:00,
2013-05-22 20:05:00,65.8,54.1,29.79,West,259,0.0,0.0,66,0.00,,,0.00,Wunderground v.1.15,2013-05-23 01:05:00,
2013-05-22 20:10:00,65.6,53.9,29.79,West,259,0.0,0.0,66,0.00,,,0.00,Wunderground v.1.15,2013-05-23 01:10:00,
2013-05-22 20:19:00,65.0,54.2,29.79,West,259,0.0,0.0,68,0.00,,,0.00,Wunderground v.1.15,2013-05-23 01:19:00,
2013-05-22 20:25:00,64.7,54.3,29.79,West,259,0.0,0.0,69,0.00,,,0.00,Wunderground v.1.15,2013-05-23 01:25:00,
2013-05-22 20:35:00,63.9,54.3,29.80,West,259,0.0,0.0,71,0.00,,,0.00,Wunderground v.1.15,2013-05-23 01:35:00,
2013-05-22 20:45:00,62.9,54.9,29.80,West,259,0.0,0.0,75,0.00,,,0.00,Wunderground v.1.15,2013-05-23 01:45:00,
2013-05-22 20:55:00,62.0,54.3,29.80,West,259,0.0,0.0,76,0.00,,,0.00,Wunderground v.1.15,2013-05-23 01:55:00,
2013-05-22 21:05:00,61.3,54.0,29.81,West,259,0.0,0.0,77,0.00,,,0.00,Wunderground v.1.15,2013-05-23 02:05:00,
2013-05-22 21:10:00,61.0,54.4,29.81,West,259,0.0,0.0,79,0.00,,,0.00,Wunderground v.1.15,2013-05-23 02:10:00,
2013-05-22 21:20:00,60.4,54.5,29.81,West,259,0.0,0.0,81,0.00,,,0.00,Wunderground v.1.15,2013-05-23 02:20:00,
2013-05-22 21:29:00,59.6,54.1,29.81,West,259,0.0,0.0,82,0.00,,,0.00,Wunderground v.1.15,2013-05-23 02:29:00,
2013-05-22 21:35:00,59.5,54.0,29.82,West,259,0.0,0.0,82,0.00,,,0.00,Wunderground v.1.15,2013-05-23 02:35:00,
2013-05-22 21:45:00,59.2,54.0,29.82,West,259,0.0,0.0,83,0.00,,,0.00,Wunderground v.1.15,2013-05-23 02:45:00,
2013-05-22 21:54:00,58.9,54.1,29.82,West,259,0.0,0.0,84,0.00,,,0.00,Wunderground v.1.15,2013-05-23 02:54:00,
2013-05-22 22:00:00,58.7,53.9,29.82,West,259,0.0,0.0,84,0.00,,,0.00,Wunderground v.1.15,2013-05-23 03:00:00,
2013-05-22 22:05:00,58.6,54.1,29.83,West,259,0.0,0.0,85,0.00,,,0.00,Wunderground v.1.15,2013-05-23 03:05:00,
2013-05-22 22:10:00,58.3,54.1,29.83,West,259,0.0,0.0,86,0.00,,,0.00,Wunderground v.1.15,2013-05-23 03:10:00,
2013-05-22 22:19:00,57.8,53.6,29.84,West,259,0.0,0.0,86,0.00,,,0.00,Wunderground v.1.15,2013-05-23 03:19:00,
2013-05-22 22:24:00,57.6,53.8,29.84,West,259,0.0,0.0,87,0.00,,,0.00,Wunderground v.1.15,2013-05-23 03:24:00,
2013-05-22 22:35:00,57.3,53.5,29.84,West,259,0.0,0.0,87,0.00,,,0.00,Wunderground v.1.15,2013-05-23 03:35:00,
2013-05-22 22:45:00,57.0,53.5,29.84,West,259,0.0,0.0,88,0.00,,,0.00,Wunderground v.1.15,2013-05-23 03:45:00,
2013-05-22 22:55:00,56.6,53.1,29.85,West,259,0.0,0.0,88,0.00,,,0.00,Wunderground v.1.15,2013-05-23 03:55:00,
2013-05-22 23:05:00,56.5,53.0,29.85,West,259,0.0,0.0,88,0.00,,,0.00,Wunderground v.1.15,2013-05-23 04:05:00,
2013-05-22 23:10:00,56.2,53.0,29.85,West,259,0.0,0.0,89,0.00,,,0.00,Wunderground v.1.15,2013-05-23 04:10:00,
2013-05-22 23:15:00,56.2,53.0,29.85,West,259,0.0,0.0,89,0.00,,,0.00,Wunderground v.1.15,2013-05-23 04:15:00,
2013-05-22 23:20:00,56.5,53.6,29.85,West,259,0.0,0.0,90,0.00,,,0.00,Wunderground v.1.15,2013-05-23 04:20:00,
2013-05-22 23:25:00,56.6,53.7,29.85,West,259,0.0,0.0,90,0.00,,,0.00,Wunderground v.1.15,2013-05-23 04:25:00,
2013-05-22 23:35:00,56.2,53.3,29.85,West,259,0.0,0.0,90,0.00,,,0.00,Wunderground v.1.15,2013-05-23 04:35:00,
2013-05-22 23:40:00,56.2,53.3,29.85,West,259,0.0,0.0,90,0.00,,,0.00,Wunderground v.1.15,2013-05-23 04:40:00,
2013-05-22 23:50:00,56.2,53.3,29.85,West,259,0.0,0.0,90,0.00,,,0.00,Wunderground v.1.15,2013-05-23 04:50:00,